EW2549 Weather Reports


time (UTC)temp
C
wind
direction
speed
KPH
gust
KPH
rain 1hr
cm
rain 24hr
cm
rain mn
cm
humidity
%
barometer
mb
20260508101528 5 329 0.0 0.0 0.00 0.00 0.00 83 1008.0
20260508094518 5 329 0.0 0.0 0.00 0.00 0.00 81 1008.4
20260508093016 6 329 0.0 0.0 0.00 0.00 0.00 81 1008.4
20260508091513 6 329 0.0 0.0 0.00 0.00 0.00 81 1008.5
20260508090011 6 329 0.0 0.0 0.00 0.00 0.00 81 1008.5
20260508084510 6 329 0.0 0.0 0.00 0.00 0.00 82 1008.6
20260508083009 6 329 0.0 0.0 0.00 0.00 0.00 81 1008.9
20260508081507 6 329 0.0 0.0 0.00 0.00 0.00 80 1009.1
20260508080003 7 329 0.0 0.0 0.00 0.00 0.00 78 1009.1
20260508074607 7 329 0.0 0.0 0.00 0.00 0.00 76 1009.7
20260508073106 7 329 0.0 0.0 0.00 0.00 0.00 75 1009.5
20260508071556 7 335 0.0 0.0 0.00 0.00 0.00 73 1009.3
20260508070051 8 335 0.0 0.0 0.00 0.00 0.00 71 1009.1
20260508064602 9 335 0.0 0.0 0.00 0.00 0.00 69 1009.2
20260508063043 10 335 0.0 0.0 0.00 0.00 0.00 67 1009.4
20260508061549 10 336 0.0 0.0 0.00 0.00 0.00 66 1009.4
20260508060040 10 336 0.0 0.0 0.00 0.00 0.00 65 1009.5
20260508054603 10 336 0.0 0.0 0.00 0.00 0.00 66 1009.9
20260508053037 10 320 0.0 0.0 0.00 0.00 0.00 65 1010.1
20260508051537 11 236 0.0 0.0 0.00 0.00 0.00 65 1009.4
20260508050040 11 298 0.0 0.0 0.00 0.00 0.00 63 1009.4
20260508044536 12 360 0.0 0.0 0.00 0.00 0.00 61 1009.3
20260508043043 12 360 0.0 0.0 0.00 0.00 0.00 60 1009.3
20260508041536 12 355 0.0 11.3 0.00 0.00 0.00 57 1009.8
20260508040043 12 308 0.0 0.0 0.00 0.00 0.00 55 1009.3
20260508034535 12 307 0.0 0.0 0.00 0.00 0.00 52 1009.1
20260508033034 13 305 0.0 0.0 0.00 0.00 0.00 52 1008.9
20260508031533 13 269 0.0 0.0 0.00 0.00 0.00 50 1009.0
20260508030033 13 259 6.4 14.5 0.00 0.00 0.00 49 1009.0
20260508024633 13 320 0.0 16.1 0.00 0.00 0.00 46 1008.9
20260508023031 14 231 11.3 25.7 0.00 0.00 0.00 46 1009.1
20260508021531 14 252 1.6 12.9 0.00 0.00 0.00 44 1009.1
20260508020033 15 315 0.0 0.0 0.00 0.00 0.00 44 1009.1
20260508014531 16 338 0.0 0.0 0.00 0.00 0.00 41 1008.6
20260508013029 16 86 0.0 0.0 0.00 0.00 0.00 43 1008.3
20260508011535 17 86 0.0 0.0 0.00 0.00 0.00 38 1008.1
20260508010037 17 86 0.0 0.0 0.00 0.00 0.00 39 1008.1
20260508004537 18 86 0.0 0.0 0.00 0.00 0.00 35 1008.0
20260508003028 18 86 0.0 0.0 0.00 0.00 0.00 32 1007.9
20260508001529 18 86 0.0 0.0 0.00 0.00 0.00 32 1008.1
20260508000026 19 86 0.0 0.0 0.00 0.00 0.00 34 1008.4
20260507234531 20 86 0.0 0.0 0.00 0.00 0.00 32 1008.2
20260507233027 20 86 0.0 0.0 0.00 0.00 0.00 27 1008.3
20260507231521 20 86 0.0 0.0 0.00 0.00 0.00 30 1008.5
20260507230019 20 292 0.0 0.0 0.00 0.00 0.00 27 1008.7
20260507224522 20 348 0.0 0.0 0.00 0.10 0.00 28 1008.9
20260507223017 20 34 0.0 0.0 0.00 0.10 0.00 27 1008.9
20260507221517 20 344 0.0 14.5 0.00 0.10 0.00 27 1009.2
20260507220013 21 257 0.0 17.7 0.00 0.10 0.00 30 1009.5
20260507214518 21 313 1.6 16.1 0.00 0.38 0.00 31 1010.0
20260507213008 20 248 4.8 14.5 0.00 0.38 0.00 30 1010.4
20260507211503 18 89 0.0 0.0 0.00 0.38 0.00 33 1010.8
20260507204558 17 344 0.0 0.0 0.00 0.64 0.00 33 1011.4
20260507203157 17 344 0.0 0.0 0.00 0.64 0.00 35 1011.7
20260507201556 17 345 0.0 0.0 0.00 0.64 0.00 34 1012.0
20260507200053 17 252 0.0 11.3 0.00 0.64 0.00 34 1012.2
20260507194550 17 256 3.2 19.3 0.00 1.09 0.00 32 1012.4
20260507193055 17 329 9.7 24.1 0.00 1.09 0.00 38 1012.7
20260507191547 16 258 6.4 22.5 0.00 1.09 0.00 39 1012.9
20260507190043 15 261 8.0 25.7 0.00 1.09 0.00 36 1013.2
20260507184541 15 242 0.0 19.3 0.00 1.22 0.00 37 1013.4
20260507183037 15 333 1.6 16.1 0.00 1.22 0.00 37 1013.6
20260507181537 15 236 4.8 16.1 0.00 1.22 0.00 39 1013.6
20260507180034 14 288 0.0 0.0 0.00 1.22 0.00 41 1014.0
20260507174546 13 292 0.0 0.0 0.00 1.30 0.00 42 1014.3
20260507173032 13 292 0.0 3.2 0.00 1.30 0.00 41 1014.4
20260507171541 13 249 0.0 3.2 0.00 1.30 0.00 39 1014.6
20260507170029 13 71 0.0 0.0 0.00 1.30 0.00 45 1014.9
20260507164529 13 71 0.0 3.2 0.00 1.35 0.00 43 1014.8
20260507163027 14 95 0.0 0.0 0.00 1.35 0.00 41 1015.1
20260507161525 15 82 0.0 0.0 0.00 1.35 0.00 41 1015.2
20260507160024 15 355 0.0 0.0 0.00 1.35 0.00 42 1015.5
20260507154523 16 69 0.0 0.0 0.00 1.37 0.00 39 1015.5
20260507153025 15 80 0.0 0.0 0.00 1.37 0.00 42 1015.7